Overview Statistics Trail Chart Weather Telemetry Raw packets
 

This is the latest recevied weather packets stored in our database for station/object K0FJ-1. If no packets are shown the sender has not sent any weather packets the latest 10 day(s).

<< 106 107 108 109 110 111 112 >>
Time Temp. Humidity Pressure Rain* Wind** Luminosity Snow
1787897103 20° C 73% 1023.5 hPa 0 mm - - -
1787896812 19.44° C 74% 1023.6 hPa 0 mm - - -
1787896503 19.44° C 76% 1023.5 hPa 0 mm - - -
1787896203 18.89° C 77% 1023.5 hPa 0 mm - - -
1787895903 18.89° C 78% 1023.6 hPa 0 mm - - -
1787895603 18.89° C 79% 1023.7 hPa 0 mm - - -
1787895303 18.89° C 81% 1023.6 hPa 0 mm - - -
1787895003 18.33° C 81% 1023.8 hPa 0 mm - - -
1787894703 18.33° C 81% 1023.8 hPa 0 mm - - -
1787894412 18.33° C 81% 1024 hPa 0 mm - - -
1787894103 18.33° C 81% 1024.2 hPa 0 mm - - -
1787893803 18.89° C 80% 1024.2 hPa 0 mm - - -
1787893503 18.89° C 79% 1024.5 hPa 0 mm - - -
1787893204 18.89° C 78% 1024.6 hPa 0 mm - - -
1787892903 19.44° C 77% 1024.6 hPa 0 mm - - -
1787892603 19.44° C 74% 1024.5 hPa 0 mm - - -
1787892303 20.56° C 72% 1024.7 hPa 0 mm - - -
1787892003 21.67° C 68% 1024 hPa 0 mm - - -
1787891703 23.89° C 63% 1024.3 hPa 0 mm - - -
1787891403 25° C 66% 1022.6 hPa 0 mm - - -
1787891103 25.56° C 65% 1021.9 hPa 0 mm - - -
1787890803 25.56° C 64% 1021.8 hPa 0 mm - - -
1787890503 25.56° C 63% 1021.5 hPa 0 mm - - -
1787890209 25.56° C 63% 1021.5 hPa 0 mm - - -
1787889903 25.56° C 63% 1021.4 hPa 0 mm - - -

* Rain latest hour (hover to see other rain measurements)
** Current wind speed in m/s (hover to see current wind gust speed)